SCP
1 1 0 0 0 0 0 1 1 0 0 0 0 0 0 0 0 0 0 0 -0 -0 -0 -0 -0 -0 -0 -0 -0 0 0 0
0 0 0 0 0 0 0 0 0 1 1 1 0 0 0 0 0 0 0 0 -0 -0 -0 -0 -0 -0 -0 0 -0 -0 0 0
0 0 0 0 0 0 0 0 1 0 1 0 0 0 0 0 0 0 0 0 -0 -0 0 0 -0 -0 0 -0 -0 0 0 0
0 0 0 0 0 0 0 1 1 0 1 0 0 0 0 0 0 0 0 0 -0 -0 0 -0 0 0 0 -0 0 0 0 0
0 0 0 0 0 0 0 0 0 0 0 0 0 0 0 0 0 0 0 0 0 0 0 -0 0 0 0 0 0 0 0 0
0 0 -0 0 0 -0 0 0 0 0 0 0 0 0 0 0 0 0 0 0 0 0 0 0 0 0 0 0 0 0 -0 0
0 -0 -0 0 0 0 0 0 0 0 0 0 0 0 0 0 0 0 0 0 0 0 0 0 0 0 0 0 0 0 0 0
0 0 0 0 0 0 0 0 0 0 0 0 0 0 0 0 0 0 0 0 0 0 0 0 0 0 0 0 0 0 0 0
-0 0 0 0 -0 -0 0 0 0 0 0 0 0 0 0 0 0 0 0 0 0 0 0 0 0 0 0 0 0 0 0 0
-0 -0 0 0 -0 0 0 0 0 0 0 0 0 0 0 0 0 0 0 0 0 0 0 0 0 0 0 0 0 0 0 0
-0 -0 0 0 0 0 0 0 0 0 0 0 0 0 0 0 0 0 0 0 0 0 0 0 0 0 0 0 0 0 0 0
0 -0 -0 0 0 0 0 0 0 0 0 0 0 0 0 0 0 0 0 0 0 0 0 0 0 0 0 0 0 0 0 0
0 0 0 0 0 0 0 0 0 0 0 0 0 0 0 0 0 0 0 0 0 0 0 0 0 0 0 0 0 0 0 0
0 0 0 0 0 0 0 0 0 0 0 0 0 0 0 0 0 0 0 0 0 0 0 0 0 0 0 0 0 0 0 0
-0 0 -0 0 0 0 0 0 0 0 0 0 0 -0 -0 0 0 0 0 0 0 0 0 0 0 0 0 0 0 0 0 0
-0 -0 -0 -0 0 0 0 0 0 0 0 -0 0 -0 -0 -0 0 0 0 0 0 0 0 0 0 0 0 0 0 0 0 0
-0 -0 -0 0 -0 -0 0 0 0 0 0 0 -0 -0 -0 0 0 0 0 0 0 0 0 0 0 0 0 0 0 0 0 0
-0 -0 -0 -0 -0 -0 -0 -0 -0 0 0 0 0 0 0 0 0 0 0 0 0 0 0 0 0 0 0 0 0 0 0 0
-0 -0 -0 -0 -0 -0 -0 -0 -0 -0 0 0 0 0 0 0 0 0 0 0 0 0 -0 0 0 0 0 0 0 0 0 0
-0 -0 -0 -0 -0 -0 -0 -0 -0 -0 -0 -0 0 0 0 0 0 0 0 0 0 0 0 0 0 0 0 0 0 0 0 0
Wind_Speed_500mb
44 47 45 53 58 67 66 80 76 69 68 65 63 65 67 67 63 60 58 61 58 56 54 52 48 46 45 43 53 48 39 38
48 44 56 50 47 59 63 65 69 70 67 65 69 69 68 67 62 63 65 61 57 55 52 49 45 45 45 42 46 50 36 37
36 48 50 65 71 46 49 59 69 69 67 70 72 68 68 60 65 65 65 60 56 51 49 47 44 44 45 45 40 32 31 31
38 31 27 53 65 76 65 63 65 67 74 75 67 63 66 56 66 62 62 59 54 49 48 45 43 42 42 37 27 31 28 27
37 33 29 24 70 57 51 59 75 75 71 78 68 71 69 67 66 61 65 61 54 49 47 36 35 33 31 27 30 29 28 28
44 38 33 46 50 66 79 67 76 77 80 80 75 79 74 65 68 58 65 56 51 46 39 33 35 34 31 32 29 27 27 26
35 33 24 50 55 54 69 79 84 85 85 75 73 83 78 63 63 59 54 49 48 43 36 37 33 33 33 30 26 27 27 24
31 31 23 41 50 53 63 83 96 89 80 78 83 85 76 65 71 53 49 46 44 41 39 35 34 31 31 28 24 24 23 23
30 31 25 39 38 41 52 77 98 82 77 81 85 82 76 65 59 54 46 44 43 40 39 34 32 31 30 28 24 23 20 21
30 27 32 41 42 45 59 75 76 78 70 78 77 73 69 69 63 50 51 45 43 39 37 33 31 31 29 26 24 22 20 18
35 29 32 45 53 53 62 74 76 77 66 59 75 69 60 54 54 55 53 52 41 41 37 34 32 29 29 27 25 22 22 19
43 29 42 48 59 65 65 62 77 80 68 61 66 72 56 55 54 57 53 41 39 43 40 37 32 30 28 27 26 28 26 25
44 53 49 55 63 74 78 74 77 93 84 56 68 56 80 62 51 58 48 40 39 48 42 38 36 33 28 26 28 29 32 31
44 45 52 57 58 65 75 83 83 90 85 73 65 66 73 73 65 60 58 41 46 46 46 35 32 43 27 23 20 24 37 39
37 43 44 54 48 54 78 84 81 87 84 90 79 78 75 74 70 65 64 57 53 50 45 41 33 40 39 22 17 24 17 23
31 41 48 53 64 65 74 91 98 100 93 93 93 87 69 68 73 68 66 61 55 52 48 44 46 35 45 48 38 24 19 15
34 38 50 59 60 66 70 83 92 92 96 98 78 99 88 75 76 74 70 62 51 46 41 41 45 45 37 27 40 41 52 51
39 49 52 60 64 67 72 81 89 93 101 98 93 93 85 79 87 81 73 60 59 66 56 44 54 51 44 41 37 35 37 45
41 52 56 58 69 72 71 84 84 91 112 105 97 89 95 93 96 87 80 73 72 62 70 66 59 52 48 45 46 48 43 59
49 51 55 62 75 76 73 75 74 89 104 107 103 95 96 97 95 97 102 101 87 83 81 71 62 63 64 61 52 55 60 66
Wind_Direction_500mb
223 217 205 210 213 203 195 189 189 187 185 181 177 172 165 159 155 158 154 143 141 134 130 127 125 127 127 129 121 122 117 117
221 229 223 233 225 210 195 187 191 186 184 179 174 171 167 162 156 157 151 146 143 140 134 126 125 126 127 127 122 111 117 116
213 211 219 219 217 210 194 190 186 183 178 177 172 169 170 157 153 153 154 150 147 144 137 130 127 126 127 126 103 122 119 124
189 191 232 224 200 201 199 184 185 181 179 174 165 167 163 158 153 156 157 154 151 147 142 135 130 131 129 115 132 129 125 127
178 210 202 181 215 208 199 180 172 177 177 177 173 169 160 158 152 159 161 160 158 153 148 134 141 145 135 139 135 125 129 134
205 199 205 189 190 214 218 208 197 182 176 177 174 173 167 157 154 156 161 161 164 159 153 156 152 155 148 142 135 134 133 139
193 198 204 199 209 219 219 200 180 176 175 180 179 175 170 159 155 158 160 168 167 162 167 160 155 157 150 143 143 142 139 142
210 224 230 201 208 216 212 195 187 176 173 180 183 177 175 166 165 162 167 170 171 165 162 164 159 164 158 154 150 145 145 146
235 232 213 195 203 207 209 185 166 168 168 181 179 179 184 172 166 167 167 170 168 166 160 167 167 168 166 166 163 157 160 158
214 228 209 197 199 189 187 180 168 170 174 178 178 180 181 178 175 168 171 172 170 169 166 168 173 174 173 177 177 173 174 173
222 224 205 202 189 187 182 186 183 169 171 172 177 175 177 182 182 179 179 178 177 178 178 177 179 173 179 182 187 185 195 195
221 229 201 199 193 190 187 189 176 173 170 180 173 174 176 189 191 190 185 181 182 188 190 190 187 182 183 188 197 205 210 215
218 217 208 209 202 193 194 189 185 184 183 183 178 187 198 194 197 195 187 189 191 197 195 197 196 191 187 204 215 224 230 233
217 214 217 213 213 201 198 194 194 196 189 189 190 198 200 202 199 199 198 196 198 203 202 197 200 204 198 209 218 235 242 239
205 213 213 213 215 211 202 195 197 197 198 194 197 208 208 209 205 204 207 207 207 211 214 216 208 218 208 214 222 238 224 234
202 205 204 213 206 214 202 201 202 203 199 199 202 211 211 215 211 210 212 213 211 214 222 231 229 232 232 227 229 225 224 237
196 200 205 209 213 213 210 208 208 204 204 205 214 215 218 220 218 217 216 215 211 217 229 241 240 234 237 245 246 252 254 249
198 197 202 204 208 211 216 211 208 204 207 209 213 216 226 219 214 221 220 217 224 233 236 242 246 246 241 241 238 248 258 255
202 198 204 205 205 210 212 209 212 214 208 208 212 219 220 216 213 214 220 227 233 246 243 240 243 246 251 247 254 262 257 269
202 201 202 207 205 209 209 209 212 219 212 212 214 219 222 217 217 219 224 232 245 244 235 239 247 257 263 261 259 265 269 270
Wind_Speed_850mb
44 47 45 53 58 67 66 80 76 69 68 65 63 65 67 67 63 60 58 61 58 56 54 52 48 46 45 43 53 48 39 38
48 44 56 50 47 59 63 65 69 70 67 65 69 69 68 67 62 63 65 61 57 55 52 49 45 45 45 42 46 50 36 37
36 48 50 65 71 46 49 59 69 69 67 70 72 68 68 60 65 65 65 60 56 51 49 47 44 44 45 45 40 32 31 31
38 31 27 53 65 76 65 63 65 67 74 75 67 63 66 56 66 62 62 59 54 49 48 45 43 42 42 37 27 31 28 27
37 33 29 24 70 57 51 59 75 75 71 78 68 71 69 67 66 61 65 61 54 49 47 36 35 33 31 27 30 29 28 28
44 38 33 46 50 66 79 67 76 77 80 80 75 79 74 65 68 58 65 56 51 46 39 33 35 34 31 32 29 27 27 26
35 33 24 50 55 54 69 79 84 85 85 75 73 83 78 63 63 59 54 49 48 43 36 37 33 33 33 30 26 27 27 24
31 31 23 41 50 53 63 83 96 89 80 78 83 85 76 65 71 53 49 46 44 41 39 35 34 31 31 28 24 24 23 23
30 31 25 39 38 41 52 77 98 82 77 81 85 82 76 65 59 54 46 44 43 40 39 34 32 31 30 28 24 23 20 21
30 27 32 41 42 45 59 75 76 78 70 78 77 73 69 69 63 50 51 45 43 39 37 33 31 31 29 26 24 22 20 18
35 29 32 45 53 53 62 74 76 77 66 59 75 69 60 54 54 55 53 52 41 41 37 34 32 29 29 27 25 22 22 19
43 29 42 48 59 65 65 62 77 80 68 61 66 72 56 55 54 57 53 41 39 43 40 37 32 30 28 27 26 28 26 25
44 53 49 55 63 74 78 74 77 93 84 56 68 56 80 62 51 58 48 40 39 48 42 38 36 33 28 26 28 29 32 31
44 45 52 57 58 65 75 83 83 90 85 73 65 66 73 73 65 60 58 41 46 46 46 35 32 43 27 23 20 24 37 39
37 43 44 54 48 54 78 84 81 87 84 90 79 78 75 74 70 65 64 57 53 50 45 41 33 40 39 22 17 24 17 23
31 41 48 53 64 65 74 91 98 100 93 93 93 87 69 68 73 68 66 61 55 52 48 44 46 35 45 48 38 24 19 15
34 38 50 59 60 66 70 83 92 92 96 98 78 99 88 75 76 74 70 62 51 46 41 41 45 45 37 27 40 41 52 51
39 49 52 60 64 67 72 81 89 93 101 98 93 93 85 79 87 81 73 60 59 66 56 44 54 51 44 41 37 35 37 45
41 52 56 58 69 72 71 84 84 91 112 105 97 89 95 93 96 87 80 73 72 62 70 66 59 52 48 45 46 48 43 59
49 51 55 62 75 76 73 75 74 89 104 107 103 95 96 97 95 97 102 101 87 83 81 71 62 63 64 61 52 55 60 66
Wind_Direction_850mb
223 217 205 210 213 203 195 189 189 187 185 181 177 172 165 159 155 158 154 143 141 134 130 127 125 127 127 129 121 122 117 117
221 229 223 233 225 210 195 187 191 186 184 179 174 171 167 162 156 157 151 146 143 140 134 126 125 126 127 127 122 111 117 116
213 211 219 219 217 210 194 190 186 183 178 177 172 169 170 157 153 153 154 150 147 144 137 130 127 126 127 126 103 122 119 124
189 191 232 224 200 201 199 184 185 181 179 174 165 167 163 158 153 156 157 154 151 147 142 135 130 131 129 115 132 129 125 127
178 210 202 181 215 208 199 180 172 177 177 177 173 169 160 158 152 159 161 160 158 153 148 134 141 145 135 139 135 125 129 134
205 199 205 189 190 214 218 208 197 182 176 177 174 173 167 157 154 156 161 161 164 159 153 156 152 155 148 142 135 134 133 139
193 198 204 199 209 219 219 200 180 176 175 180 179 175 170 159 155 158 160 168 167 162 167 160 155 157 150 143 143 142 139 142
210 224 230 201 208 216 212 195 187 176 173 180 183 177 175 166 165 162 167 170 171 165 162 164 159 164 158 154 150 145 145 146
235 232 213 195 203 207 209 185 166 168 168 181 179 179 184 172 166 167 167 170 168 166 160 167 167 168 166 166 163 157 160 158
214 228 209 197 199 189 187 180 168 170 174 178 178 180 181 178 175 168 171 172 170 169 166 168 173 174 173 177 177 173 174 173
222 224 205 202 189 187 182 186 183 169 171 172 177 175 177 182 182 179 179 178 177 178 178 177 179 173 179 182 187 185 195 195
221 229 201 199 193 190 187 189 176 173 170 180 173 174 176 189 191 190 185 181 182 188 190 190 187 182 183 188 197 205 210 215
218 217 208 209 202 193 194 189 185 184 183 183 178 187 198 194 197 195 187 189 191 197 195 197 196 191 187 204 215 224 230 233
217 214 217 213 213 201 198 194 194 196 189 189 190 198 200 202 199 199 198 196 198 203 202 197 200 204 198 209 218 235 242 239
205 213 213 213 215 211 202 195 197 197 198 194 197 208 208 209 205 204 207 207 207 211 214 216 208 218 208 214 222 238 224 234
202 205 204 213 206 214 202 201 202 203 199 199 202 211 211 215 211 210 212 213 211 214 222 231 229 232 232 227 229 225 224 237
196 200 205 209 213 213 210 208 208 204 204 205 214 215 218 220 218 217 216 215 211 217 229 241 240 234 237 245 246 252 254 249
198 197 202 204 208 211 216 211 208 204 207 209 213 216 226 219 214 221 220 217 224 233 236 242 246 246 241 241 238 248 258 255
202 198 204 205 205 210 212 209 212 214 208 208 212 219 220 216 213 214 220 227 233 246 243 240 243 246 251 247 254 262 257 269
202 201 202 207 205 209 209 209 212 219 212 212 214 219 222 217 217 219 224 232 245 244 235 239 247 257 263 261 259 265 269 270